Regional Weather Roundup
Issued by NWS

Home | Current Version | Previous Version | Graphics & Text | Print | Product List | Glossary On
Versions: 1 2 3 4 5 6 7 8 9 10 11 12 13 14 15 16 17 18 19 20 21 22 23 24 25 26 27
000
ASUS45 KSLC 231110
RWRUT

UTAH REGIONAL WEATHER ROUNDUP
NATIONAL WEATHER SERVICE SALT LAKE CITY UT
400 AM MST THU NOV 23 2017

UTZ001>011-023>025-231200-

NORTHERN UTAH

CITY           SKY/WX    TMP DP  RH WIND       PRES   REMARKS
BRIGHAM CITY   PTCLDY    39  36  90 CALM      30.31F
HILL AFB       PTCLDY    47  38  69 E15       30.30F
LOGAN          CLEAR     33  31  92 NW5       30.31F WCI  29
OGDEN          PTCLDY    46  38  73 S8        30.29F
SALT LAKE CITY PTCLDY    47  40  76 SE6       30.29F
TOOELE VALLEY  PTCLDY    46  39  76 S13       30.30F
WENDOVER       MOCLDY    37  32  82 NW3       30.30F
HEBER CITY       N/A     32  32 100 CALM      30.38S
WEST JORDAN    PTCLDY    50  41  71 SW9       30.31F

$$

UTZ011>015-024>027-231200-

CENTRAL/NORTHEAST UTAH

CITY           SKY/WX    TMP DP  RH WIND       PRES   REMARKS
PROVO AIRPORT  PTCLDY    38  36  92 S5        30.35F WCI  34
MOAB/CANYONLAN PTCLDY    33  22  63 CALM      30.36F
DELTA          MOCLDY    37  34  87 CALM      30.33F
PRICE          PTCLDY    37  32  82 NE10      30.38F WCI  30
RICHFIELD      CLEAR     34  34 100 CALM      30.40F
ROOSEVELT      CLOUDY    32  28  86 SW8       30.40F WCI  25
VERNAL         CLOUDY    35  29  78 CALM      30.36F

$$

UTZ013>016-019>022-027-231200-

SOUTHERN UTAH

CITY           SKY/WX    TMP DP  RH WIND       PRES   REMARKS
BRYCE CANYON   PTCLDY    28  26  92 W6        30.48F WCI  22
CEDAR CITY     PTCLDY    33  29  85 SE5       30.36F WCI  29
MILFORD        PTCLDY    31  28  89 SW7       30.36S WCI  24
ST GEORGE      MOSUNNY   49  31  49 W3        30.30F
HANKSVILLE     PTCLDY    34  19  55 CALM      30.39F
KANAB          CLEAR     45  32  61 N12       30.40F
BLANDING         N/A     41  31  68 N8        30.44S

$$

REGIONAL REPORTS     COLORADO/ARIZONA

CITY           SKY/WX    TMP DP  RH WIND       PRES   REMARKS
CRAIG, CO      CLOUDY    28  25  88 CALM      30.40F
GRAND JUNCTION CLOUDY    35  30  82 E7        30.38F WCI  29
RIFLE, CO      CLOUDY    31  30  96 CALM      30.43F
MONTROSE, CO   CLOUDY    33  29  85 S10       30.44F WCI  25
CORTEZ, CO     CLOUDY    29  24  82 NE8       30.38F WCI  21
COLORADO CITY    N/A     36  28  75 CALM      30.38F
PAGE, AZ       PTCLDY    44  30  57 CALM      30.36F
GRAND CANYON   PTCLDY    24  20  84 CALM      30.43F
KINGMAN, AZ    CLEAR     47  29  49 E5        30.24F
FLAGSTAFF, AZ  PTCLDY    26  21  81 CALM      30.43F

$$

REGIONAL REPORTS    NEVADA/IDAHO/WYOMING

CITY           SKY/WX    TMP DP  RH WIND       PRES   REMARKS
LAS VEGAS, NV  PTCLDY    58  36  43 SW6       30.19F
ELY, NY        PTCLDY    35  28  75 VRB5      30.38F WCI  31
ELKO, NV       MOCLDY    39  37  92 E5        30.30F
POCATELLO, ID  FOG       32  32 100 N3        30.25F VSB 1/2
BURLEY, ID     MOCLDY    40  37  89 CALM      30.20F
FORT BRIDGER,    N/A     42  35  74 W8        30.39F
EVANSTON, WY   CLOUDY    41  37  86 SW7       30.38F
ROCK SPRINGS,  CLOUDY    43  35  73 SW14      30.35F
KEMMERER, WY   CLOUDY    34  32  93 N7        30.38F WCI  28

$$




USA.gov is the U.S. government's official web portal to all federal, state and local government web resources and services.